AirNav   Everest Fuels
 
 1142 users online  

2SC7 Laurel Hill Farms Airport
McClellanville, South Carolina, USA

GOING TO MCCLELLANVILLE?


FAA INFORMATION EFFECTIVE 15 JULY 2021

Location

FAA Identifier: 2SC7
Lat/Long: 33-03-06.0000N 079-32-29.0000W
33-03.100000N 079-32.483333W
33.0516667,-79.5413889
(estimated)
Elevation: 8 ft. / 2 m (estimated)
Variation: 07W (2000)
From city: 5 miles SW of MCCLELLANVILLE, SC
Time zone: UTC -4 (UTC -5 during Standard Time)
Zip code: 29458

Airport Operations

Airport use: Private use. Permission required prior to landing
Activation date: 11/2000
Control tower: no
ARTCC: JACKSONVILLE CENTER
FSS: ANDERSON FLIGHT SERVICE STATION
Attendance: UNATNDD
Segmented circle: no

Airport Communications

WX AWOS-3 at LRO (15 nm SW): 118.625 (843-849-0438)
WX AWOS-3 at GGE (19 nm NE): 118.275 (843-527-3851)

Nearby radio navigation aids

VOR radial/distance  VOR name  Freq  Var
CHSr074/26.7CHARLESTON VORTAC113.5005W

 
NDB name  Hdg/Dist  Freq  Var  ID
ANDREWS188/24.025506WPHH .--. .... ....
DORCHESTER COUNTY098/37.036507WDYB -.. -.-- -...

Airport Services

Runway Information

Runway 6/24

Dimensions: 1900 x 100 ft. / 579 x 30 m
Surface: turf
RUNWAY 6  RUNWAY 24
Traffic pattern: leftleft
Obstructions: 60 ft. trees, 50 ft. from runway40 ft. pline, 40 ft. from runway

Airport Ownership and Management from official FAA records

Ownership: Privately-owned
Owner: LAUREL HILL FARMS LLC
8863 HIGHWAY 17 NORTH
MCCLELLANVILLE, SC 29458
Phone 843-887-4055
Manager: BRIGHT MC CONNELL, III
8863 HIGHWAY 17 NORTH
MCCLELLANVILLE, SC 29458
Phone 843-887-4055
WORK PH: 843-284-5200

Additional Remarks

FOR CD CTC CHARLESTON APCH AT 843-414-2832.

Instrument Procedures

There are no published instrument procedures at 2SC7.

Some nearby airports with instrument procedures:

KLRO - Mount Pleasant Regional Airport-Faison Field (15 nm SW)
KGGE - Georgetown County Airport (19 nm NE)
KPHH - Robert F Swinnie Airport (24 nm N)
KMKS - Berkeley County Airport (26 nm W)
KCHS - Charleston Air Force Base/International Airport (27 nm W)
 
Loc | Ops | Rwys | IFR | FBO | Links
Com | Nav | Svcs | Stats | Notes
Area around 2SC7 (Laurel Hill Farms Airport)
 
Road maps at: MapQuest Bing Google
 
Aerial photo
No photo
 
Sectional chart

 
Airport distance calculator
Flying to Laurel Hill Farms Airport? Find the distance to fly.

From to 2SC7

Sunrise and sunset
Times for 02-Aug-2021
 Local
(UTC-4)
 Zulu
(UTC)
Morning civil twilight06:0610:06
Sunrise06:3310:33
Sunset20:1600:16
Evening civil twilight20:4300:43

Current date and time
Zulu (UTC)  02-Aug-2021 23:04:50
Local (UTC-4)  02-Aug-2021 19:04:50
 
METAR
KLRO 
15nm SW 
022255Z AUTO 00000KT 3SM -DZ FEW044 SCT050 BKN060 26/26 A2993 RMK AO2 LTG DSNT SE-W
KGGE 
19nm NE 
022255Z AUTO 00000KT 10SM CLR 28/22 A2995 RMK AO2 LTG DSNT S
KMKS 
26nm W 
022255Z AUTO 00000KT 10SM CLR 28/22 A2993 RMK AO2 LTG DSNT SE
KCHS 
26nm W 
022256Z 17011KT 2SM R15/5000VP6000FT +TSRA BR BKN025CB OVC040 23/22 A2996 RMK AO2 PK WND 16027/2239 RAB23 TSE45B46 SLP145 OCNL LTGIC ALQDS TS ALQDS STNRY P0075 T02330217
TAF
KCHS 
26nm W 
022205Z 0222/0318 19009KT P6SM VCTS SCT060CB TEMPO 0222/0224 VRB15G25KT 2SM TSRA BKN030CB FM030300 22007KT P6SM VCSH SCT025 BKN050 FM031300 VRB03KT 6SM -SHRA BKN050
KJZI 
31nm SW 
022211Z 0222/0318 15011KT P6SM VCTS SCT050CB FM022300 19009KT P6SM VCTS SCT060CB FM030300 22007KT P6SM VCSH SCT025 BKN050 FM031300 VRB03KT 6SM -SHRA BKN050
NOTAMs
Click for the latest NOTAMs
NOTAMs are issued by the DoD/FAA and will open in a separate window not controlled by AirNav.

 

 
 

Would you like to see your business listed on this page?

 If your business provides an interesting product or service to pilots, flight crews, aircraft, or users of the Laurel Hill Farms Airport, you should consider listing it here.  To start the listing process, click on the button below
 
Add a business
 

Other Pages about Laurel Hill Farms Airport

Update a link
 
Copyright © AirNav, LLC. All rights reserved. Privacy Policy  Contact